Other Public Products
Issued by NWS Grand Forks, ND

Home | Current Version | Previous Version | Graphics & Text | Print | Product List | Glossary Off
Versions: 1 2 3 4 5 6 7 8 9 10 11 12 13 14 15 16 17 18 19 20 21 22 23 24 25 26 27 28 29 30 31 32 33 34 35 36 37 38 39 40 41 42 43 44 45 46 47 48 49 50

000
FPUS83 KFGF 130331
OPUFGF
PRAIRIE TO PINES WEATHER ROUNDUP
NATIONAL WEATHER SERVICE EASTERN NORTH DAKOTA/GRAND FORKS ND
900 PM CST FRI FEB 12 2016

 **SATELLITE DATA USED TO AUGMENT SKY COVER AT AUTOMATED STATIONS**
 *****  WEATHER ACROSS EASTERN NORTH DAKOTA  *****

CITY           SKY/WX    TMP DP  RH WIND       PRES   REMARKS
GRAND FORKS    CLOUDY    -4 -12  68 W5        30.68S WCI -15
GRAND FORKS AF CLOUDY    -6 -14  68 NW6       30.67S WCI -19
GRAND CITY NWS NOT AVBL
BUXTON           N/A     -5 -10  78 NW7         N/A  WCI -19
DEVILS LAKE    CLOUDY   -14 -18  82 CALM      30.60F
FARGO          CLOUDY    -4 -12  68 NW7       30.68S WCI -18
WAHPETON ARPT  CLOUDY    -6 -13  71 NW6       30.67F WCI -18
$$

 *****  WEATHER ACROSS CENTRAL AND WESTERN NORTH DAKOTA  *****

CITY           SKY/WX    TMP DP  RH WIND       PRES   REMARKS
JAMESTOWN      CLOUDY    -6 -11  79 CALM      30.59F
BISMARCK       CLEAR      1  -6  72 SE8       30.54F WCI -13
MINOT          CLOUDY     2  -7  66 SE5       30.51F WCI  -8
MINOT AFB      CLOUDY    -2  -8  75 CALM      30.51F
GARRISON         N/A      4  -2  76 SE10      30.49F WCI -11
WILLISTON      CLOUDY    12   2  64 SE12      30.39F WCI  -2
DICKINSON      CLOUDY    10   3  73 SE15      30.35F WCI  -7
HETTINGER      LGT SNOW  11   5  77 SE15      30.37F WCI  -5
$$

 *****  OTHER OBSERVATIONS NORTHEAST NORTH DAKOTA  *****

CITY           SKY/WX    TMP DP  RH WIND       PRES   REMARKS
WALHALLA       FAIR      -8 -13  77 CALM      30.66S
LANGDON        FAIR     -18 -24  76 CALM      30.57S
CAVALIER       FAIR      -4 -11  71 SW3       30.67S
GRAFTON        FAIR      -6 -13  71 CALM      30.70S
CANDO          FAIR     -15 -18  84 S3        30.61S
FORT TOTTEN      N/A    -10 -15  77 CALM      29.95S
ROLLA          FAIR     -20 -26  76 SW3       30.54S
RUGBY          FAIR      -4  -9  77 S7        30.56F WCI -18
 ***** THE ABOVE OBSERVATIONS ARE NON NWS ARE NOT QUALITY
        CONTROLLED AND MAY MIS-REPORT RAIN FOR SNOW...
$$

 *****  OTHER OBSERVATIONS SOUTHEAST NORTH DAKOTA *****

CITY           SKY/WX    TMP DP  RH WIND       PRES   REMARKS
COOPERSTOWN    NOT AVBL
VALLEY CITY    FAIR     -11 -15  84 NW6       30.63S WCI -25
OAKES          FAIR      -2  -9  71 N3        30.64R
GWINNER        FAIR      -6 -11  77 CALM      30.64R
SHEYENNE NWR     N/A    -15 -22  68 CALM      29.95S
BUFFALO          N/A    -14 -20  74 NW3         N/A
WYNDMERE         N/A     -6 -11  77 NW6         N/A  WCI -18
 ***** THE ABOVE OBSERVATIONS ARE NON NWS ARE NOT QUALITY
       CONTROLLED AND MAY MIS-REPORT RAIN FOR SNOW...
$$

  *****  WEATHER ACROSS NORTHERN MINNESOTA  *****

CITY           SKY/WX    TMP DP  RH WIND       PRES   REMARKS
FLAG ISLAND    CLOUDY   -15 -20  76 W5        30.57S WCI -27
WARROAD        CLOUDY   -11 -20  64 W5        30.59S WCI -23
ROSEAU         CLOUDY   -11 -18  70 W8        30.61S WCI -28
HALLOCK        CLOUDY    -9 -17  70 W3        30.66S
THF RVR FALLS  CLOUDY   -11 N/A N/A NW7       30.62F WCI -26
HALSTAD          N/A     -4  -9  77 NW6         N/A  WCI -16
FOSSTON          N/A    -17 -20  83 CALM      30.61S
BAUDETTE       CLOUDY   -12 -22  61 NW9       30.55R WCI -30
WASKISH        CLOUDY   -13 -18  77 W5        30.56S WCI -25
CROOKSTON      CLOUDY    -9 -15  77 N5        30.68S WCI -21
$$
  *****  WEATHER ACROSS CENTRAL AND WEST MINNESOTA  *****

CITY           SKY/WX    TMP DP  RH WIND       PRES   REMARKS
BEMIDJI        CLOUDY   -13 -18  77 W6        30.56S WCI -27
PARK RAPIDS    CLOUDY   -12 -19  71 NW9       30.56R WCI -30
WADENA         CLOUDY    -9 -17  70 NW7       30.58R WCI -24
DETROIT LAKES  CLOUDY    -8 -13  77 N6        30.60S WCI -21
MOORHEAD       CLOUDY    -6 -11  77 NW6       30.68R WCI -18
FERGUS FALLS   CLOUDY    -6 -11  77 NW6       30.68S WCI -18
ELBOW LAKE     FAIR      -4 -10  75 N8        30.63S WCI -19
MORRIS MN      CLOUDY    -2  -8  78 NW12      30.62S WCI -20
STAPLES        CLOUDY    -9 -17  70 NW9       30.57S WCI -27
WHEATON        CLOUDY    -6 -11  77 NW5       30.67F WCI -17
$$
  *****  WEATHER ELSEWHERE ACROSS MINNESOTA  *****

CITY           SKY/WX    TMP DP  RH WIND       PRES   REMARKS
DULUTH         CLEAR     -5 -18  53 NW13      30.44R WCI -24
INTRNTL FALLS  CLOUDY   -10 -20  61 NW9       30.52S WCI -27
ELY            CLEAR    -11 -18  70 NW6       30.44S WCI -25
CLOQUET        CLEAR     -6 -18  54 NW8       30.49R WCI -21
BRAINERD       CLOUDY    -4 -16  56 NW14      30.55S WCI -24
HIBBING        CLOUDY    -9 -19  61 NW15      30.48R WCI -31
ALEXANDRIA     CLOUDY    -5 -14  65 NW10      30.58R WCI -23
SAINT CLOUD    CLOUDY    -2 -12  62 NW14      30.58R WCI -21
MINNEAPOLIS    CLEAR      4 -11  50 NW13      30.57R WCI -13
$$

  *****  WEATHER ACROSS SOUTH DAKOTA  *****

CITY           SKY/WX    TMP DP  RH WIND       PRES   REMARKS
SIOUX FALLS    CLOUDY     3  -6  66 N3        30.60S
BROOKINGS      CLOUDY    -2 -10  69 N6        30.58S WCI -14
WATERTOWN      CLOUDY    -6 -13  71 NW3       30.57S
HURON          CLEAR      3  -6  66 NE6       30.64S WCI  -8
SISSETON         N/A     -7 -13  75 N6        30.64F WCI -20
ABERDEEN       CLEAR      1  -9  62 NE3       30.64S
MITCHELL       CLEAR      7  -1  70 NE7       30.63F WCI  -5
PIERRE         CLOUDY    13   7  77 E16       30.52F WCI  -3
MOBRIDGE       CLEAR      7   0  73 E15       30.50F WCI -10
RAPID CITY     CLOUDY    23  21  92 SE13      30.31F WCI  11
$$

  *****  SOME WEATHER IN NEARBY STATES *****

CITY           SKY/WX    TMP DP  RH WIND       PRES   REMARKS
GLASGOW MT     MIX PCPN  18  13  80 E22       30.18F WCI   1
GREAT FALLS MT MOCLDY    44  31  60 SW13      30.00S
CHEYENNE WY    PTCLDY    34  28  79 S9        30.23F
SCOTTSBLUFF NE CLOUDY    33  30  88 SE14      30.28F WCI  23
OMAHA NE       MOCLDY    14   2  58 N10       30.65R WCI   1
DES MOINES IA  CLOUDY     8  -1  66 NW8       30.60R WCI  -4
DAVENPORT IA   CLEAR      9  -2  61 NW17      30.50R WCI  -9
CHICAGO IL     PTCLDY    11  -8  42 NW18G26   30.38R WCI  -7
EAU CLAIRE WI  CLEAR      1 -16  44 W6        30.51R WCI -10
LA CROSSE WI   CLEAR      2 -10  57 NW9       30.54R WCI -13
$$

  *****  SOME NATIONAL WEATHER *****

CITY           SKY/WX    TMP DP  RH WIND       PRES   REMARKS
LA GUARDIA NY  CLOUDY    24   4  42 W13       29.96F WCI  12
RALEIGH NC     MOCLDY    31  22  69 SW5       30.04S
ATLANTA GA     PTCLDY    46  28  49 N15G23    30.16R
NEW ORLEANS LA MOCLDY    67  53  61 NW7       30.26R
OKLAHOMA CITY  PTCLDY    44  27  51 NE13      30.41R
ALBUQUERQUE NM CLEAR     54  19  25 NE6       30.31R
SALT LAKE CITY CLOUDY    30  28  92 CALM      30.33F FOG
LOS ANGELES CA PTCLDY    61  55  81 W7        30.06R
BOISE ID       CLOUDY    42  35  76 CALM      30.22R
SEATTLE WA     MOCLDY    52  43  71 SW9       30.16R
$$

*** WEATHER ACROSS MANITOBA...SASKATCHEWAN AND ONTARIO ***
                ***ONTARIO***

CITY           SKY/WX    TMP DP  RH WIND       PRES   REMARKS
GERALDTON      CRYSTALS -15 -22  70 NW12G22   30.24S WCI -36
THUNDER BAY    CLEAR     -6 -17  59 NW10G20   30.43R WCI -23
SIOUX LOOKOUT  CLEAR    -11 -20  64 NW10G17   30.43R WCI -30
TORONTO        PTCLDY    14   0  52 NW18G25   29.93R WCI  -3
BIG TROUT LK   CLEAR    -18 -24  76 NW10      30.36R WCI -39
PICKLE LAKE    NOT AVBL
DRYDEN         CLEAR    -13 -20  70 W8        30.45S WCI -30
KENORA         CLEAR    -15 -22  70 NW8       30.51F WCI -32
$$
                *** MANITOBA***

CITY           SKY/WX    TMP DP  RH WIND       PRES   REMARKS
BRANDON        PTCLDY   -20 -26  76 N5        30.58F WCI -33
DAUPHIN        CLEAR    -15 -22  70 W7        30.61S WCI -31
ISLAND LAKE    NOT AVBL
PILOT MOUND      N/A    -15 -20  76 S2          N/A
THE PAS        CLEAR    -20 -27  69 CALM      30.57F
THOMPSON       CLEAR    -15 -20  76 W3        30.53S
WINNIPEG       CLEAR    -13 -22  64 W5        30.65F WCI -25
LYNN LAKE      CLEAR    -20 -24  83 SW5       30.45F WCI -33
CHURCHILL      CRYSTALS -17 -24  70 NW17      30.45S WCI -42
GILLAM         CLEAR    -13 -20  70 W10       30.46S WCI -32
$$
                ***SASKATCHEWAN***

CITY           SKY/WX    TMP DP  RH WIND       PRES   REMARKS
ESTEVAN        MOCLDY     3  -4  72 SE14      30.44F WCI -15
KINDERSLEY     LGT SNOW  14  10  85 SE20      30.09F BLWGSNOWWCI  -3
LLOYDMINSTER   CLOUDY     7   1  78 SE16G23   30.10F WCI -11
PRINCE ALBERT  MOCLDY   -15 -22  70 E8        30.41F WCI -32
REGINA         CLOUDY     9   0  66 SE18      30.36F WCI -10
YORKTON        CLEAR    -15 -18  84 S6        30.48F WCC1F1C2F2C3F3C4F4C5F5C6F6C7F7C8F8C9F9CaFaCbFbCcFcCdFdCe!


USA.gov is the U.S. government's official web portal to all federal, state and local government web resources and services.